Waarnemingen

Advertentie
Mijn weer
Koblenz/Falkensteinkaserne, Duitsland (10516): temperatuur & dauwpunt: 16.11.2017 08:00:00 - 22.11.2017 08:00:00 (CET)Koblenz/Falkensteinkaserne, Duitsland (10516): windsnelheid & windstoten: 16.11.2017 08:00:00 - 22.11.2017 08:00:00 (CET)Koblenz/Falkensteinkaserne, Duitsland (10516): windrichting: 16.11.2017 08:00:00 - 22.11.2017 08:00:00 (CET)Koblenz/Falkensteinkaserne, Duitsland (10516): luchtdruk: 16.11.2017 08:00:00 - 22.11.2017 08:00:00 (CET)Koblenz/Falkensteinkaserne, Duitsland (10516): zicht: 16.11.2017 08:00:00 - 22.11.2017 08:00:00 (CET)
Datum & Tijd tt [°C] td [°C] ff [km/u] ff [kn] fx [km/u] fx [kn] dd ppp [hPa] vv [km]
22.11.2017 08:00:00 - - - - - - - - 15
22.11.2017 07:00:00 - - - - - - - - 10
22.11.2017 06:00:00 - - - - - - - - -
22.11.2017 05:00:00 - - - - - - - - -
22.11.2017 04:00:00 - - - - - - - - -
22.11.2017 03:00:00 - - - - - - - - -
22.11.2017 02:00:00 - - - - - - - - -
22.11.2017 01:00:00 - - - - - - - - -
22.11.2017 00:00:00 - - - - - - - - -
21.11.2017 23:00:00 - - - - - - - - -
21.11.2017 22:00:00 - - - - - - - - -
21.11.2017 21:00:00 - - - - - - - - 15
21.11.2017 20:00:00 - - - - - - - - 20
21.11.2017 19:00:00 - - - - - - - - 20
21.11.2017 18:00:00 - - - - - - - - 20
21.11.2017 17:00:00 - - - - - - - - 20
21.11.2017 16:00:00 - - - - - - - - 20
21.11.2017 15:00:00 - - - - - - - - 20
21.11.2017 14:00:00 - - - - - - - - 20
21.11.2017 13:00:00 - - - - - - - - 20
21.11.2017 12:00:00 - - - - - - - - 15
21.11.2017 11:00:00 - - - - - - - - 15
21.11.2017 10:00:00 - - - - - - - - 9
21.11.2017 09:00:00 - - - - - - - - 8
21.11.2017 08:00:00 - - - - - - - - 8
21.11.2017 07:00:00 - - - - - - - - 10
21.11.2017 06:00:00 - - - - - - - - -
21.11.2017 05:00:00 - - - - - - - - -
21.11.2017 04:00:00 - - - - - - - - -
21.11.2017 03:00:00 - - - - - - - - -
21.11.2017 02:00:00 - - - - - - - - -
21.11.2017 01:00:00 - - - - - - - - -
21.11.2017 00:00:00 - - - - - - - - -
20.11.2017 23:00:00 - - - - - - - - -
20.11.2017 22:00:00 - - - - - - - - -
20.11.2017 21:00:00 - - - - - - - - 10
20.11.2017 20:00:00 - - - - - - - - 10
20.11.2017 19:00:00 - - - - - - - - 9
20.11.2017 18:00:00 - - - - - - - - 9
20.11.2017 17:00:00 - - - - - - - - 10
20.11.2017 16:00:00 - - - - - - - - 8
20.11.2017 15:00:00 - - - - - - - - 8
20.11.2017 14:00:00 - - - - - - - - 10
20.11.2017 13:00:00 - - - - - - - - 10
20.11.2017 12:00:00 - - 7 4 - - - - 10
20.11.2017 11:00:00 - - - - - - - - 9
20.11.2017 10:00:00 3,7 - 7 4 - - WNW - 8
20.11.2017 09:00:00 3,8 - 7 4 - - Z - 15
20.11.2017 08:00:00 3,6 0,5 11 6 - - ZW 1022,5 15
20.11.2017 07:00:00 3,7 - 7 4 - - WZW - 10
20.11.2017 06:00:00 3,9 0,9 7 4 - - W 1022,4 -
20.11.2017 05:00:00 4,1 1,2 11 6 - - WNW 1022,4 -
20.11.2017 04:00:00 4,2 1,2 7 4 - - WNW 1022,5 -
20.11.2017 03:00:00 5,1 - 7 4 - - WNW - -
20.11.2017 02:00:00 5,5 - 7 4 - - WNW - -
20.11.2017 01:00:00 5,2 - 7 4 - - WNW - -
20.11.2017 00:00:00 - - 7 4 - - WNW - -
19.11.2017 23:00:00 5,7 - 4 2 - - WNW - -
19.11.2017 22:00:00 6,3 1,6 7 4 - - WNW 1022,4 -
19.11.2017 21:00:00 6,9 1,3 11 6 - - NW 1021,5 -
19.11.2017 20:00:00 7,1 1,5 11 6 - - NW 1021,0 -
19.11.2017 19:00:00 7,0 1,4 11 6 - - NW 1020,4 -
19.11.2017 18:00:00 7,0 1,2 11 6 - - WNW 1019,9 -
19.11.2017 17:00:00 7,3 1,3 11 6 - - NW 1019,4 -
19.11.2017 16:00:00 7,9 1,5 7 4 - - NW 1019,1 -
19.11.2017 15:00:00 7,7 1,5 11 6 - - NW 1018,9 -
19.11.2017 14:00:00 7,7 2,0 11 6 - - NW 1018,7 -
19.11.2017 13:00:00 7,4 2,6 7 4 - - NW 1018,7 -
19.11.2017 12:00:00 6,4 2,4 7 4 - - NW 1018,8 -
19.11.2017 11:00:00 5,8 2,1 7 4 - - NW 1018,7 -
19.11.2017 10:00:00 4,2 1,2 7 4 - - ZW 1018,4 -
19.11.2017 09:00:00 3,9 1,4 7 4 68 37 ZZO 1017,9 -
19.11.2017 08:00:00 3,9 1,5 4 2 - - NW 1017,5 -
19.11.2017 07:00:00 - - 14 8 - - NW - -
19.11.2017 06:00:00 4,6 2,6 11 6 101 54 NW 1016,2 -
19.11.2017 05:00:00 4,1 2,6 7 4 - - NW 1016,2 -
19.11.2017 04:00:00 4,1 2,4 7 4 - - NW 1015,9 -
19.11.2017 03:00:00 4,5 - 4 2 - - NNW - -
19.11.2017 02:00:00 4,4 - 4 2 - - NO - -
19.11.2017 01:00:00 4,4 - 7 4 - - N - -
19.11.2017 00:00:00 5,1 - 7 4 - - WNW - -
18.11.2017 23:00:00 5,0 1,8 7 4 - - WNW 1017,5 -
18.11.2017 22:00:00 5,0 1,5 7 4 - - NW 1018,0 -
18.11.2017 21:00:00 4,7 1,1 14 8 - - W 1018,1 -
18.11.2017 20:00:00 4,6 - 11 6 - - WNW - -
18.11.2017 19:00:00 5,1 1,1 11 6 - - NW 1019,3 -
18.11.2017 18:00:00 5,0 0,7 7 4 - - W 1019,4 -
18.11.2017 17:00:00 4,8 0,5 7 4 - - NW 1019,7 -
18.11.2017 16:00:00 - 0,3 11 6 - - W - -
18.11.2017 15:00:00 5,4 - 11 6 - - ZW - -
18.11.2017 14:00:00 6,0 - 11 6 - - NW - -
18.11.2017 13:00:00 5,4 0,0 7 4 - - WNW 1021,9 -
18.11.2017 12:00:00 5,0 - 11 6 - - NW - -
18.11.2017 11:00:00 3,6 1,7 7 4 - - WZW 1023,6 -
18.11.2017 10:00:00 1,9 - 4 2 - - NW - -
18.11.2017 09:00:00 1,4 - 7 4 - - ZZW - -
18.11.2017 08:00:00 0,8 - 7 4 - - Z - -
18.11.2017 07:00:00 0,8 0,0 7 4 - - ZZW 1024,5 -
18.11.2017 06:00:00 0,8 0,0 7 4 - - WNW 1024,8 -
18.11.2017 05:00:00 - - 7 4 - - W - -
18.11.2017 04:00:00 - - 4 2 - - W - -
18.11.2017 03:00:00 1,5 - 7 4 - - ZZO - -
18.11.2017 02:00:00 - 1,1 4 2 - - WNW - -
18.11.2017 01:00:00 1,4 - 4 2 - - N - -
18.11.2017 00:00:00 2,4 - 4 2 - - NW - -
17.11.2017 23:00:00 3,7 2,5 4 2 - - ZZO 1026,5 -
17.11.2017 22:00:00 4,6 3,3 4 2 - - NNO 1026,7 -
17.11.2017 21:00:00 5,2 3,9 4 2 - - WNW 1027,1 15
17.11.2017 20:00:00 5,3 4,1 4 2 - - Z 1026,6 12
17.11.2017 19:00:00 5,8 4,5 7 4 - - W 1026,7 8
17.11.2017 18:00:00 6,8 - 4 2 - - W - 8
17.11.2017 17:00:00 7,1 - 4 2 - - NW - 9
17.11.2017 16:00:00 7,7 - 4 2 - - W - 9
17.11.2017 15:00:00 7,4 - 4 2 - - WNW - 9
17.11.2017 14:00:00 7,8 5,6 7 4 - - N 1027,1 3,5
17.11.2017 13:00:00 7,4 - 4 2 - - N - 2,0
17.11.2017 12:00:00 6,9 5,4 4 2 - - NNO 1027,6 1,5
17.11.2017 11:00:00 6,2 4,9 4 2 - - N 1027,8 1,5
17.11.2017 10:00:00 5,8 4,3 4 2 - - N 1027,8 2,2
17.11.2017 09:00:00 5,7 4,3 4 2 - - N 1027,5 3,0
17.11.2017 08:00:00 5,4 4,2 4 2 - - NW 1026,9 4,0
17.11.2017 07:00:00 5,3 4,1 7 4 - - WZW 1026,5 4,0
17.11.2017 06:00:00 5,4 3,8 7 4 - - N 1026,2 -
17.11.2017 05:00:00 5,6 3,6 4 2 - - N 1025,8 -
17.11.2017 04:00:00 5,6 3,9 4 2 - - N 1025,7 -
17.11.2017 03:00:00 5,6 3,9 4 2 - - N 1025,9 -
17.11.2017 02:00:00 5,4 4,1 4 2 - - Z 1025,8 -
17.11.2017 01:00:00 5,3 3,9 4 2 - - N 1025,6 -
17.11.2017 00:00:00 5,2 3,8 7 4 - - Z 1025,8 -
16.11.2017 23:00:00 5,1 3,9 4 2 - - N 1025,7 -
16.11.2017 22:00:00 5,2 3,6 4 2 - - Z 1025,6 -
16.11.2017 21:00:00 5,4 3,3 7 4 - - ZZO 1025,3 10
16.11.2017 20:00:00 5,6 3,1 7 4 - - ZZO 1025,0 15
16.11.2017 19:00:00 5,8 3,1 4 2 - - ZO 1024,8 15
16.11.2017 18:00:00 5,8 2,9 7 4 - - ZZO 1024,7 15
16.11.2017 17:00:00 5,8 2,9 4 2 - - Z 1024,7 15
16.11.2017 16:00:00 5,9 2,7 7 4 - - ZZO 1024,6 15
16.11.2017 15:00:00 5,8 2,6 7 4 - - ZO 1024,8 14
16.11.2017 14:00:00 5,8 2,6 4 2 - - N 1025,2 14
16.11.2017 13:00:00 5,4 2,6 7 4 - - ZO 1025,3 12
16.11.2017 12:00:00 5,3 2,5 7 4 - - ZZO 1026,1 12
16.11.2017 11:00:00 5,2 2,2 7 4 - - ZO 1026,5 12
16.11.2017 10:00:00 4,9 1,9 4 2 - - Z 1026,3 12
16.11.2017 09:00:00 4,7 2,1 7 4 - - ZZO 1026,0 12
16.11.2017 08:00:00 4,5 2,7 4 2 - - N 1025,7 12

tt = temperatuur
td = dauwpunt
ff = windsnelheid
fx = windstoten
dd = windrichting
ppp = luchtdruk
vv = zicht

Weerstations in de omgeving